Location: Aalen
(48.8330°N, 10.1000°E)
Time: 23:14:20
(UTC+02:00)

Transit 4A - Pass Details

Date: 01 August 2021
Orbit: 870 x 974 km, 66.8° (Epoch: 26 September)

Event Time Altitude Azimuth Distance (km) Brightness Sun altitude
Rises 11:15:39 0° 315° (NW) 3,480 10.5 49.4°
Reaches altitude 10° 11:18:42 10° 300° (WNW) 2,547 9.9 49.8°
Maximum altitude 11:22:56 21° 253° (WSW) 1,895 9.6 50.3°
Drops below altitude 10° 11:27:14 10° 207° (SSW) 2,577 10.5 50.9°
Sets 11:30:21 0° 192° (SSW) 3,532 11.2 51.2°
